Preview of NWS' New Version of Forecast
This preview is not operational and should not be used for support decisions.

Regional Weather Roundup (RWR)

Issued by Gray - Portland, ME (GYX)

                            
000
ASUS41 KGYX 201710
RWRGYX
WEATHER ROUNDUP FOR MAINE AND NEW HAMPSHIRE
NATIONAL WEATHER SERVICE GRAY ME
100 PM EDT SUN MAY 20 2018

MEZ002-005-006-010-012-015-018-020-021-024-026-027-029-201800-
MAINE
  
CITY           SKY/WX    TMP DP  RH WIND       PRES   REMARKS
PORTLAND       CLOUDY    72  64  76 VRB6      29.79S                  
SANFORD        CLOUDY    74  65  73 W8        29.81S                  
BAR HARBOR     CLOUDY    61  59  93 SW5       29.79R                  
WISCASSET      LGT RAIN  68  64  87 CALM      29.80S                  
ROCKLAND       CLOUDY    65  61  87 W8        29.79R                  
FRYEBURG       CLOUDY    71  58  63 W8        29.81R                  
LEWISTONAUBURN LGT RAIN  68  62  81 N9        29.80R                  
AUGUSTA        CLOUDY    65  60  84 CALM      29.80S                  
WATERVILLE     PTSUNNY   64  61  88 SW3       29.77S                  
BANGOR         LGT RAIN  62  59  90 NW6       29.79R                  
GREENVILLE       N/A     62  56  80 NW14      29.77R                  
MILLINOCKET    CLOUDY    60  55  83 VRB6      29.77F                  
HOULTON        PTSUNNY   59  56  89 SW7       29.72F                  
PRESQUE ISLE   CLOUDY    62  52  69 W9G20     29.73R                  
FRENCHVILLE    PTSUNNY   61  46  57 NW14G31   29.73R                  
CARIBOU        CLOUDY    62  51  67 NW13G21   29.71R                  
$$

NHZ002-005-008-009-011-012-014-201800-
NEW HAMPSHIRE
  
CITY           SKY/WX    TMP DP  RH WIND       PRES   REMARKS
PORTSMOUTH     PTSUNNY   79  64  61 W12G23    29.79S                  
ROCHESTER      PTSUNNY   74  66  76 MISG      29.81S                  
MANCHESTER     CLOUDY    78  64  61 W9G17     29.82S                  
CONCORD        CLOUDY    73  63  70 W10       29.83S                  
LACONIA        CLOUDY    70  64  81 W7        29.83F                  
PLYMOUTH       CLOUDY    65  60  84 W6        29.84R                  
BERLIN         CLOUDY    65  58  78 VRB6      29.84S                  
WHITEFIELD     CLOUDY    63  58  83 NW5       29.86R                  
JAFFREY        LGT RAIN  70  67  90 SW7       29.88S                  
KEENE          CLOUDY    70  67  90 W3        29.87S                  
LEBANON        LGT RAIN  67  62  84 CALM      29.85S FOG              
MT WASHINGTON  DRZL/FOG  45  45 100 MISG        N/A  VSB 1/16         
$$

VTZ005-007-008-201800-
VERMONT
  
CITY           SKY/WX    TMP DP  RH WIND       PRES   REMARKS
ST JOHNSBURY     N/A     65  58  78 MISG      29.85R                  
MONTPELIER     CLOUDY    61  58  90 NW8       29.93R                  
BURLINGTON     CLOUDY    65  55  70 NW8       29.92R                  
$$

MAZ007-012-024-CTZ003-RIZ002-NYZ038-NYZ072-201800-
SOUTHERN NEW ENGLAND AND NY
  
CITY           SKY/WX    TMP DP  RH WIND       PRES   REMARKS
BOSTON         PTSUNNY   78  66  66 SW18      29.83F                  
WORCESTER      PTSUNNY   73  64  73 SW17G24   29.88S                  
NANTUCKET      FOG       57  57 100 SW20G26   29.94F VSB 1/4          
PROVIDENCE     CLOUDY    72  66  81 SW7       29.89F                  
HARTFORD       PTSUNNY   78  64  61 W14       29.87F                  
ALBANY         CLOUDY    71  65  81 W10       29.90R                  
NEW YORK CITY  PTSUNNY   82  63  52 W15G28    29.91F                  
$$

ANZ081-ANZ082-ANZ150-NHZ014-MEZ023>029-201800-
COASTAL MARINE OBSERVATIONS
  
STATION/POSITION TIME  TEMP    WIND        PRES    WAVE
                       AIR SEA DIR/SP/G            HT/PER
                 (UTC) (F)     (DEG/KT/KT) (MB)    (FT/S)
MOUNT DESERT ROC 1700   49     240/ 15/ 16 1009.1R
MATINICUS ROCK   1700   50     270/ 11/ 11 1008.9R
ISLE OF SHOALS   1700   74     260/ 16/ 17 1008.8F
JEFFREYS LEDGE   1636      49                N/A     4/ 7
CASHES LEDGE BUO 1650   56 49              1009.3S   6/ 6
$$

.............KEY..............
   WCI - WIND CHILL
   TC  - TEMPERATURE IN CELSIUS
   VSB - VISIBILITY IN MILES
   HX  - HEAT INDEX
   FAIR- INDICATES FEW OR NO CLOUDS BELOW 12,000 FT, WITH NO 
         SIGNIFICANT WEATHER AND/OR OBSTRUCTIONS TO VISIBILITY.